Flag for U.S.A. Weather past 2 weeks in Louisville, Kentucky, U.S.A.

Now
78 °F

Broken clouds.


Feels Like: 79 °F
Forecast: 69 / 93 °F
Wind: 8 mph from Southeast

Location: Standiford Field

Current Time: Jul 25, 2014 at 9:39:15 PM

Latest Report: Jul 25, 2014 at 8:56 PM


Visibility: 10 mi

Pressure: 29.93 "Hg

Humidity: 48%

Dew point: 57 °F

Location of LouisvilleLocation

Historic Weather in Louisville — Graph

°F

Louisville temperature yesterday

Maximum temperature yesterday: 80 °F (at 3:56 PM)
Minimum temperature yesterday: 69 °F (at 11:56 PM)
Average temperature yesterday: 74 °F

Past Weeks' High & Low Weather Summary

 TemperatureHumidityPressure
High97 °F (Jul 13, 3:56 PM)97% (Jul 18, 11:56 PM)30.19 "Hg (Jul 18, 11:56 PM)
Low58 °F (Jul 16, 5:56 AM)31% (Jul 17, 12:56 PM)29.83 "Hg (Jul 14, 4:56 PM)
Average76 °F65%30.03 "Hg
* Reported Jul 10 7:56 PM — Jul 25 7:56 PM, Louisville, Weather by CustomWeather, © 2014

Note: Actual official high and low records may vary slightly from our data, if they occured in-between our weather recording intervals... More about our weather records

Advertising

Louisville weather history for previous 24 hours

 ConditionsComfort  
Time TempWeatherWind HumidityBarometerVisibility
7:56 PM
Jul 25
79 °FPartly sunny.7 mph45%29.95 "Hg10 mi
6:56 PM80 °FMore clouds than sun.10 mph44%29.92 "Hg10 mi
5:56 PM82 °FMore clouds than sun.13 mph44%29.98 "Hg10 mi
4:56 PM83 °FMostly cloudy.10 mph36%30.00 "Hg10 mi
3:56 PM83 °FBroken clouds.No wind36%30.02 "Hg10 mi
2:56 PM83 °FPartly sunny.No wind36%30.02 "Hg10 mi
1:56 PM81 °FPartly sunny.5 mph38%30.04 "Hg10 mi
12:56 PM80 °FPartly sunny.5 mph39%30.06 "Hg10 mi
11:56 AM79 °FScattered clouds.3 mph42%30.08 "Hg10 mi
10:56 AM75 °FPartly sunny.5 mph54%30.08 "Hg10 mi
9:56 AM71 °FPartly sunny.5 mph59%30.08 "Hg10 mi
8:56 AM68 °FPartly sunny.5 mph65%30.08 "Hg10 mi
7:56 AM65 °FPassing clouds.5 mph76%30.09 "Hg10 mi
6:56 AM61 °FPassing clouds.3 mph83%30.08 "Hg10 mi
5:56 AM63 °FPassing clouds.No wind78%30.06 "Hg10 mi
4:56 AM64 °FPassing clouds.5 mph75%30.06 "Hg10 mi
3:56 AM63 °FPassing clouds.7 mph78%30.05 "Hg10 mi
2:56 AM65 °FPassing clouds.3 mph70%30.03 "Hg10 mi
1:56 AM65 °FClear.No wind70%30.04 "Hg10 mi
12:56 AM68 °FPassing clouds.5 mph63%30.03 "Hg10 mi
11:56 PM
Jul 24
69 °FPassing clouds.6 mph61%30.04 "Hg10 mi
10:56 PM71 °FClear.7 mph55%30.04 "Hg10 mi
9:56 PM72 °FPassing clouds.7 mph53%30.04 "Hg10 mi
Weather by CustomWeather, © 2014

See weather overviewHow to use our weather pages